TimePST,TemperatureF,Dew PointF,Humidity,Sea Level PressureIn,VisibilityMPH,Wind Direction,Wind SpeedMPH,Gust SpeedMPH,PrecipitationIn,Events,Conditions,WindDirDegrees,DateUTC
12:38 AM,46.4,46.4,100,30.11,0.8,SSW,3.5,-,N/A,,Mist,210,2013-01-09 08:38:00
12:53 AM,46.0,46.0,100,30.13,0.5,Calm,Calm,-,N/A,Fog,Fog,0,2013-01-09 08:53:00
1:53 AM,46.0,46.0,100,30.15,1.0,East,5.8,-,N/A,,Mist,100,2013-01-09 09:53:00
2:15 AM,46.4,46.4,100,30.14,2.0,ESE,4.6,-,0.01,Rain,Light Rain,110,2013-01-09 10:15:00
2:27 AM,46.4,46.4,100,30.14,3.0,SE,4.6,-,0.02,,Overcast,130,2013-01-09 10:27:00
2:34 AM,46.4,46.4,100,30.13,2.5,SSE,4.6,-,0.02,,Overcast,160,2013-01-09 10:34:00
2:48 AM,46.4,46.4,100,30.12,1.8,SE,6.9,-,0.02,Rain,Light Rain,130,2013-01-09 10:48:00
2:53 AM,46.9,46.9,100,30.14,2.0,SE,6.9,-,0.02,,Overcast,140,2013-01-09 10:53:00
3:11 AM,46.4,46.4,100,30.13,3.0,South,6.9,-,N/A,,Overcast,180,2013-01-09 11:11:00
3:53 AM,48.0,48.0,100,30.13,10.0,SSE,5.8,-,0.01,,Overcast,150,2013-01-09 11:53:00
4:14 AM,48.2,46.4,93,30.09,10.0,SE,5.8,-,N/A,,Overcast,130,2013-01-09 12:14:00
4:53 AM,48.0,46.9,96,30.12,10.0,SSE,4.6,-,N/A,,Overcast,160,2013-01-09 12:53:00
5:23 AM,48.2,46.4,93,30.07,10.0,SE,5.8,-,0.00,,Overcast,140,2013-01-09 13:23:00
5:53 AM,48.0,46.9,96,30.08,10.0,SE,6.9,-,0.00,,Overcast,140,2013-01-09 13:53:00
6:16 AM,48.2,46.4,93,30.05,10.0,SE,5.8,-,N/A,,Overcast,140,2013-01-09 14:16:00
6:53 AM,48.9,46.0,90,30.06,8.0,SSE,10.4,-,0.00,,Overcast,160,2013-01-09 14:53:00
7:03 AM,48.2,46.4,93,30.04,5.0,SSE,8.1,-,0.00,Rain,Light Rain,160,2013-01-09 15:03:00
7:43 AM,48.2,46.4,93,30.02,10.0,SE,5.8,-,0.00,,Overcast,140,2013-01-09 15:43:00
7:53 AM,48.9,46.0,90,30.06,4.0,SSW,8.1,-,0.01,Rain,Light Rain,200,2013-01-09 15:53:00
8:00 AM,48.2,46.4,93,30.05,1.8,West,15.0,21.9,0.05,Rain,Rain,260,2013-01-09 16:00:00
8:11 AM,46.4,46.4,100,30.06,1.8,West,15.0,28.8,0.11,Rain,Rain,260,2013-01-09 16:11:00
8:16 AM,46.4,46.4,100,30.06,2.0,West,13.8,23.0,0.12,Rain,Rain,270,2013-01-09 16:16:00
8:36 AM,46.4,46.4,100,30.07,1.5,WNW,13.8,23.0,0.15,Rain,Rain,300,2013-01-09 16:36:00
8:53 AM,46.9,46.0,97,30.10,1.5,NW,17.3,25.3,0.18,Rain,Light Rain,320,2013-01-09 16:53:00
8:57 AM,46.4,46.4,100,30.07,2.0,NW,17.3,-,0.00,Rain,Light Rain,320,2013-01-09 16:57:00
9:11 AM,46.4,46.4,100,30.08,3.0,NW,13.8,-,0.01,Rain,Light Rain,320,2013-01-09 17:11:00
9:29 AM,46.4,44.6,93,30.09,3.0,NW,15.0,-,0.01,Rain,Light Rain,320,2013-01-09 17:29:00
9:43 AM,46.4,44.6,93,30.09,3.0,NW,16.1,-,0.03,Rain,Rain,310,2013-01-09 17:43:00
10:00 AM,46.4,44.6,93,30.10,4.0,NW,15.0,25.3,0.01,Rain,Light Rain,320,2013-01-09 18:00:00
10:38 AM,44.6,44.6,100,30.10,1.8,NNW,12.7,-,0.09,Rain,Rain,330,2013-01-09 18:38:00
10:45 AM,44.6,42.8,93,30.10,3.0,NNW,11.5,-,0.09,Rain,Light Rain,330,2013-01-09 18:45:00
10:53 AM,45.0,42.1,90,30.12,5.0,NNW,6.9,-,0.10,Rain,Light Rain,340,2013-01-09 18:53:00
11:51 AM,44.6,42.8,93,30.08,2.0,NW,12.7,19.6,0.06,Rain,Rain,320,2013-01-09 19:51:00
11:53 AM,45.0,42.1,90,30.10,2.0,NNW,12.7,19.6,0.06,Rain,Rain,340,2013-01-09 19:53:00
11:56 AM,44.6,42.8,93,30.08,3.0,NNW,11.5,19.6,0.00,Rain,Light Rain,340,2013-01-09 19:56:00
12:04 PM,44.6,41.0,87,30.08,8.0,North,8.1,-,0.01,Rain,Light Rain,350,2013-01-09 20:04:00
12:23 PM,44.6,42.8,93,30.08,9.0,North,11.5,-,0.01,,Overcast,360,2013-01-09 20:23:00
12:53 PM,46.9,42.1,83,30.09,10.0,North,6.9,-,0.01,,Mostly Cloudy,360,2013-01-09 20:53:00
1:53 PM,48.9,41.0,74,30.08,10.0,NNW,13.8,-,N/A,,Mostly Cloudy,340,2013-01-09 21:53:00
2:53 PM,43.0,39.0,86,30.09,10.0,NNE,9.2,-,0.00,Rain,Light Rain,20,2013-01-09 22:53:00
3:53 PM,45.0,37.9,76,30.08,10.0,NE,3.5,-,N/A,,Partly Cloudy,40,2013-01-09 23:53:00
4:53 PM,43.0,33.1,68,30.06,10.0,North,8.1,17.3,N/A,,Scattered Clouds,360,2013-01-10 00:53:00
5:53 PM,39.0,37.0,93,30.06,10.0,Calm,Calm,-,N/A,,Scattered Clouds,0,2013-01-10 01:53:00
6:46 PM,39.2,37.4,93,30.05,9.0,ENE,3.5,-,0.01,Rain,Light Rain,70,2013-01-10 02:46:00
6:53 PM,39.0,37.9,96,30.08,10.0,Calm,Calm,-,0.01,,Overcast,0,2013-01-10 02:53:00
7:33 PM,39.2,37.4,93,30.05,10.0,East,5.8,-,0.01,,Mostly Cloudy,100,2013-01-10 03:33:00
7:53 PM,39.0,37.0,93,30.08,10.0,Calm,Calm,-,0.01,,Mostly Cloudy,0,2013-01-10 03:53:00
8:08 PM,39.2,35.6,87,30.07,2.5,Calm,Calm,-,0.06,Rain,Heavy Rain,0,2013-01-10 04:08:00
8:19 PM,37.4,35.6,93,30.06,4.0,SSE,5.8,-,0.10,Rain,Light Rain,160,2013-01-10 04:19:00
8:53 PM,37.0,36.0,96,30.08,10.0,ESE,4.6,-,0.12,,Mostly Cloudy,110,2013-01-10 04:53:00
9:33 PM,37.4,37.4,100,30.07,2.5,ENE,4.6,-,0.07,Rain,Heavy Rain,60,2013-01-10 05:33:00
9:48 PM,37.4,37.4,100,30.08,4.0,ESE,5.8,-,0.10,Rain,Rain,110,2013-01-10 05:48:00
9:53 PM,37.9,37.0,97,30.10,4.0,NE,3.5,-,0.11,Rain,Light Rain,40,2013-01-10 05:53:00
10:08 PM,37.4,37.4,100,30.08,10.0,ENE,4.6,-,0.00,Rain,Light Rain,60,2013-01-10 06:08:00
10:35 PM,37.4,37.4,100,30.07,8.0,ESE,5.8,-,0.02,Rain,Light Rain,110,2013-01-10 06:35:00
10:49 PM,37.4,35.6,93,30.07,10.0,ESE,3.5,-,0.02,,Scattered Clouds,110,2013-01-10 06:49:00
10:53 PM,37.0,36.0,96,30.10,10.0,East,3.5,-,0.02,,Scattered Clouds,80,2013-01-10 06:53:00
11:53 PM,37.0,36.0,96,30.10,10.0,SE,3.5,-,0.00,,Mostly Cloudy,140,2013-01-10 07:53:00